Time,Smithfield,Bountiful,Roosevelt,Enoch,Copperview,Hawthorne,Inland Port,Herriman,Rose Park,Murray,Erda,Vernal,Lindon,Spanish Fork,Hurricane,Harrisville
2020-01-01 07:00:00,20.9,16.8,7.5,10.5,16.9,16.4,8.15,5.4,18.5,3.4,26.8,16.8,11.8,7.2,27.4,17.6
2020-01-01 08:00:00,22.7,18.5,8.1,11.1,15.899999999999999,16.5,7.25,5.6,17.5,3.9,24.3,16.7,9.9,7.2,28.6,23.3
2020-01-01 09:00:00,19.4,19.3,5.3,12.4,16.7,16.4,7.3999999999999995,5.9,20.3,5.6,22.4,18.1,11.7,5.3,30.3,21.0
2020-01-01 10:00:00,20.8,18.0,5.1,10.8,17.049999999999997,17.3,5.65,6.3,15.8,5.7,22.8,13.8,8.0,3.9,26.4,18.8
2020-01-01 11:00:00,19.3,16.8,9.5,10.9,12.850000000000001,12.4,3.55,4.8,14.0,6.5,24.9,8.8,10.6,4.7,24.2,12.9
2020-01-01 12:00:00,13.5,18.3,9.1,13.2,9.899999999999999,8.2,3.0,3.7,14.7,7.0,22.7,10.0,11.9,8.0,26.3,9.9
2020-01-01 13:00:00,7.5,16.8,6.0,11.2,9.55,8.8,3.15,3.7,15.5,7.2,22.9,9.1,8.9,3.5,26.4,10.4
2020-01-01 14:00:00,7.6,19.8,5.1,5.6,10.7,10.6,4.9,4.5,13.4,7.3,23.5,2.3,7.6,3.6,20.3,3.2
2020-01-01 15:00:00,8.7,19.7,5.3,10.7,11.850000000000001,9.7,5.2,4.2,12.3,7.5,26.3,3.3,5.5,7.5,24.1,3.6
2020-01-01 16:00:00,10.1,18.4,5.7,6.3,11.55,10.2,3.75,3.8,11.8,5.8,21.8,4.8,4.9,9.9,18.8,4.6
2020-01-01 17:00:00,10.8,18.0,4.5,3.7,10.95,9.1,0.6,4.2,6.2,2.8,23.4,9.1,5.1,8.4,11.3,6.4
2020-01-01 18:00:00,10.7,17.0,5.2,4.4,6.9,5.7,0.5,2.2,5.4,1.2,20.9,7.2,5.0,3.9,2.3,7.3
2020-01-01 19:00:00,8.3,13.8,5.0,2.2,6.050000000000001,5.6,0.7,2.4,4.1,1.0,17.8,1.2,7.3,3.3,3.9,5.8
2020-01-01 20:00:00,7.1,10.9,5.9,1.0,5.25,4.9,1.85,1.5,2.4,0.1,16.5,2.2,4.0,2.2,3.0,4.0
2020-01-01 21:00:00,5.6,10.0,5.6,1.7,2.6,2.2,1.65,1.0,3.1,0.1,15.5,1.7,6.2,2.1,1.0,3.2
2020-01-01 22:00:00,4.4,9.0,3.6,1.0,3.4499999999999997,3.2,1.45,1.3,3.0,0.0,13.5,1.1,5.8,1.6,0.8,3.7
2020-01-01 23:00:00,3.7,9.1,2.5,1.6,3.7,2.9,1.15,1.3,3.2,0.5,11.9,1.2,4.8,1.2,0.8,3.2
2020-01-02 00:00:00,2.8,8.1,2.0,2.1,4.3,2.7,1.05,1.3,3.9,0.0,18.8,2.0,3.4,2.5,1.1,3.6
2020-01-02 01:00:00,3.8,7.9,1.4,1.9,5.6,5.1,1.9,1.9,3.8,0.1,16.6,3.3,2.5,4.9,1.3,3.7
2020-01-02 02:00:00,4.1,9.5,2.0,1.7,5.2,5.4,3.0,2.0,3.4,0.3,17.9,3.9,1.2,4.2,0.6,3.7
2020-01-02 03:00:00,1.9,11.4,1.0,1.0,6.3,4.2,1.35,1.9,3.4,0.3,14.0,4.6,0.3,3.6,0.7,3.1
2020-01-02 04:00:00,1.0,14.5,1.1,1.1,4.65,0.8,0.35,0.5,2.6,0.1,15.0,3.0,0.2,6.1,1.4,3.5
2020-01-02 05:00:00,0.5,13.7,0.3,1.1,2.15,0.5,0.25,0.2,1.8,0.1,16.0,2.8,0.9,4.3,1.1,2.2
2020-01-02 06:00:00,0.4,14.1,0.4,0.8,2.15,0.7,0.35000000000000003,0.2,1.8,0.0,12.5,2.3,1.4,5.4,1.0,1.5
2020-01-02 07:00:00,0.5,10.3,0.5,0.8,1.8,0.6,0.2,0.2,1.4,0.3,6.9,2.3,0.9,4.4,0.7,1.2
2020-01-02 08:00:00,0.3,13.6,0.4,0.6,1.6,0.3,0.2,0.2,0.8,0.3,11.1,1.8,0.4,5.2,0.7,0.6
2020-01-02 09:00:00,0.1,17.0,0.6,0.4,1.65,0.7,0.0,0.3,0.9,0.3,13.4,1.6,0.3,6.0,0.7,0.2
2020-01-02 10:00:00,0.1,20.8,0.2,0.6,1.75,0.5,0.05,0.2,1.4,0.3,12.9,0.9,0.4,4.7,0.5,0.2
2020-01-02 11:00:00,0.1,24.6,0.4,0.4,1.65,1.0,0.05,0.2,1.1,0.4,14.5,0.8,0.5,6.2,1.0,0.4
2020-01-02 12:00:00,0.2,24.8,0.3,0.4,1.6,1.4,0.2,0.2,1.6,0.3,13.8,0.8,0.3,4.3,1.6,1.2
2020-01-02 13:00:00,0.2,25.4,0.5,0.4,1.95,1.1,0.4,0.4,1.8,0.5,12.9,0.8,0.4,5.3,1.5,1.9
2020-01-02 14:00:00,0.2,24.7,1.7,0.7,2.15,1.6,0.55,0.5,4.5,0.6,9.5,0.9,0.7,4.2,2.0,1.5
2020-01-02 15:00:00,0.3,26.4,1.9,1.2,2.55,2.8,0.55,0.6,5.9,0.5,9.8,2.1,0.9,3.4,2.0,2.3
2020-01-02 16:00:00,0.4,24.5,1.8,2.3,3.5,3.1,0.55,0.9,7.8,0.6,7.1,3.4,0.8,4.3,1.8,2.0
2020-01-02 17:00:00,1.6,20.1,1.6,2.5,3.1,1.6,1.65,0.5,8.2,1.4,5.9,2.8,0.6,2.2,1.7,3.0
2020-01-02 18:00:00,1.6,14.3,1.0,1.4,2.8499999999999996,2.3,2.15,0.9,5.7,0.4,8.4,2.9,1.5,1.4,0.8,1.7
2020-01-02 19:00:00,1.1,13.2,1.2,1.5,2.7,3.9,1.1,1.1,4.2,0.4,8.3,2.1,0.6,1.0,1.0,1.3
2020-01-02 20:00:00,0.6,11.9,1.2,1.2,2.4,1.4,2.0,0.7,4.8,0.3,6.2,2.4,0.5,0.6,1.0,1.0
2020-01-02 21:00:00,0.5,11.7,1.1,1.3,2.3499999999999996,0.5,1.5499999999999998,0.5,3.4,0.2,7.2,2.9,0.8,0.5,0.9,0.1
2020-01-02 22:00:00,0.6,9.9,1.2,1.2,1.65,1.0,1.45,0.8,1.2,0.1,9.8,3.1,0.8,0.3,1.6,0.0
2020-01-02 23:00:00,0.6,7.7,1.6,1.9,1.85,2.2,1.7,0.9,1.9,0.2,8.8,3.0,1.0,0.4,2.0,0.3
2020-01-03 00:00:00,1.4,9.0,1.2,1.7,2.8499999999999996,5.1,1.2999999999999998,2.8,5.8,0.5,15.3,5.4,1.2,0.3,2.4,1.1
2020-01-03 01:00:00,1.3,14.3,1.5,1.9,4.25,9.1,2.1,2.9,6.3,0.8,13.7,5.2,5.9,0.2,3.1,1.6
2020-01-03 02:00:00,1.6,9.3,1.0,8.3,8.85,19.2,0.35,4.3,7.5,0.5,6.6,4.1,4.4,0.3,3.7,1.8
2020-01-03 03:00:00,3.4,14.9,2.0,5.6,8.3,11.1,4.65,5.2,10.0,0.7,5.3,6.1,4.9,0.3,5.5,3.5
2020-01-03 04:00:00,1.5,12.0,1.6,5.3,8.95,10.9,1.15,5.8,9.0,0.9,3.8,3.8,12.2,1.3,5.9,2.8
2020-01-03 05:00:00,2.1,17.1,6.2,5.9,6.85,9.1,1.25,5.8,7.9,0.8,5.7,2.7,5.5,6.4,7.2,1.3
2020-01-03 06:00:00,3.2,15.5,4.1,6.2,7.75,4.5,0.65,4.1,7.4,0.6,4.5,2.3,3.4,3.9,11.2,1.2
2020-01-03 07:00:00,1.6,19.0,2.9,5.4,6.6,5.6,0.6,3.2,6.7,0.4,5.7,1.2,2.1,2.4,10.4,1.7
2020-01-03 08:00:00,0.5,14.9,1.5,6.1,5.5,4.8,0.7,3.5,7.9,0.4,9.0,1.1,3.6,8.1,10.1,1.5
2020-01-03 09:00:00,0.5,22.4,1.5,3.6,5.699999999999999,5.5,0.65,3.0,4.4,0.4,8.3,0.7,2.5,1.1,8.5,1.1
2020-01-03 10:00:00,0.9,11.1,1.4,3.6,3.9000000000000004,2.5,1.15,2.0,3.8,0.4,2.5,2.3,3.9,0.7,9.8,0.7
2020-01-03 11:00:00,1.9,18.9,2.4,3.2,3.5999999999999996,3.4,1.45,1.8,4.4,0.4,2.0,4.1,4.6,0.9,9.5,0.7
2020-01-03 12:00:00,2.5,13.2,0.9,3.4,4.65,4.4,1.4,1.9,3.6,0.4,2.8,4.2,4.1,1.2,7.5,1.1
2020-01-03 13:00:00,3.6,16.0,1.6,3.4,4.35,2.6,1.6500000000000001,2.3,6.0,0.5,4.1,3.8,4.7,1.0,7.9,1.9
2020-01-03 14:00:00,3.8,22.3,2.0,3.4,4.65,3.1,1.7999999999999998,2.8,4.0,0.7,3.5,4.4,6.6,1.2,9.5,4.6
2020-01-03 15:00:00,4.7,22.8,2.1,4.7,4.85,5.6,1.5,2.4,6.4,0.5,6.0,8.1,6.7,3.4,12.2,5.9
2020-01-03 16:00:00,9.1,15.2,1.9,4.0,4.449999999999999,4.1,1.65,2.2,4.1,0.5,6.8,8.7,7.7,3.6,15.6,3.8
2020-01-03 17:00:00,7.7,16.6,3.1,4.0,4.0,4.3,2.0,2.4,6.4,0.4,16.3,10.2,6.4,1.8,13.2,2.6
2020-01-03 18:00:00,8.0,13.2,2.6,4.2,3.9000000000000004,5.2,1.9500000000000002,1.8,3.8,0.3,15.7,10.0,7.9,1.9,12.3,3.8
2020-01-03 19:00:00,6.8,13.7,2.5,4.0,3.7,4.0,1.85,1.7,4.1,0.5,19.9,9.9,7.3,1.5,12.8,4.7
2020-01-03 20:00:00,5.4,11.8,2.9,3.6,3.15,2.7,1.9500000000000002,2.2,3.8,0.7,16.3,10.8,4.6,1.4,14.2,2.8
2020-01-03 21:00:00,5.2,11.3,2.6,3.8,3.0999999999999996,3.0,2.1,2.4,3.6,0.7,16.1,9.8,4.5,1.2,13.9,2.7
2020-01-03 22:00:00,5.8,9.3,6.0,4.8,2.75,2.7,2.3,2.5,3.1,0.8,17.4,11.7,4.5,1.3,14.1,2.7
2020-01-03 23:00:00,6.0,8.6,6.5,5.9,3.1,3.2,2.5,3.1,5.3,1.1,16.2,12.6,4.7,1.3,15.1,6.5
2020-01-04 00:00:00,5.2,12.0,6.7,6.0,4.9,5.6,4.9,5.5,7.3,1.1,16.3,14.4,6.3,3.5,17.8,8.8
2020-01-04 01:00:00,6.1,13.0,4.7,7.9,5.9,6.3,6.2,5.6,10.1,0.9,34.7,16.7,12.9,6.1,22.8,9.0
2020-01-04 02:00:00,5.4,21.9,9.9,9.2,5.65,8.7,12.5,5.4,10.4,0.9,31.8,12.8,8.8,8.2,19.6,14.9
2020-01-04 03:00:00,5.5,21.2,4.7,13.5,7.75,10.4,3.55,5.2,10.7,1.0,34.1,7.3,8.0,7.3,22.0,11.9
2020-01-04 04:00:00,8.2,17.2,8.8,10.4,8.3,9.5,3.3,6.0,12.4,0.9,22.3,6.5,4.0,2.9,21.7,8.6
2020-01-04 05:00:00,7.2,19.1,10.7,8.4,9.5,9.5,2.55,5.4,14.4,1.2,29.5,11.7,2.1,2.7,17.6,2.2
2020-01-04 06:00:00,5.3,18.4,6.7,6.9,7.45,5.6,1.9000000000000001,4.1,8.8,1.6,14.1,13.9,2.7,2.0,19.5,7.1
2020-01-04 07:00:00,3.3,18.9,5.6,6.0,7.45,6.1,1.1,3.5,9.1,1.4,10.6,12.9,4.0,1.6,21.3,10.1
2020-01-04 08:00:00,2.6,15.2,7.6,4.6,6.9,7.9,0.8,2.7,8.6,1.2,9.8,6.0,2.1,1.4,19.0,8.1
2020-01-04 09:00:00,2.4,16.1,5.0,3.9,6.0,5.5,0.4,2.2,7.5,0.8,5.7,4.1,1.9,1.7,16.6,7.6
2020-01-04 10:00:00,2.3,17.2,5.3,3.6,5.25,5.1,0.3,2.3,7.5,0.9,3.3,6.7,2.1,1.1,14.3,7.4
2020-01-04 11:00:00,1.9,12.3,2.3,3.7,5.1,5.1,0.15000000000000002,2.2,5.0,0.9,2.3,4.8,1.5,3.3,10.8,5.8
2020-01-04 12:00:00,1.7,12.3,2.7,3.4,4.8,4.5,0.0,1.9,4.7,0.9,2.0,6.1,1.5,3.3,11.9,6.0
2020-01-04 13:00:00,2.0,12.3,1.4,3.5,4.3,3.9,0.05,1.8,4.5,1.1,3.0,6.6,1.5,3.0,16.6,6.5
2020-01-04 14:00:00,2.1,12.9,1.8,3.1,4.65,4.1,0.4,1.6,6.5,0.9,5.7,8.7,1.6,3.7,15.2,7.0
2020-01-04 15:00:00,2.8,11.8,2.2,3.4,5.25,4.2,-0.15,1.9,8.0,0.6,6.6,11.3,5.2,3.2,14.8,6.9
2020-01-04 16:00:00,4.2,17.8,6.7,3.3,5.9,4.4,-0.05,1.9,7.3,0.9,8.3,7.7,1.9,1.3,17.9,9.1
2020-01-04 17:00:00,4.4,17.5,7.6,5.0,5.4,3.7,-0.2,1.9,8.9,0.6,12.0,7.4,5.5,4.2,20.5,9.0
2020-01-04 18:00:00,4.7,17.8,0.9,4.4,4.65,4.3,-0.15,2.1,8.5,17.1,10.3,2.2,1.8,1.7,20.5,6.6
2020-01-04 19:00:00,3.7,18.7,1.1,4.2,4.05,4.5,-0.09999999999999999,2.2,6.8,18.9,11.1,5.3,2.9,1.7,22.9,14.6
2020-01-04 20:00:00,3.5,14.5,1.0,3.4,3.3,4.3,-0.2,2.4,4.6,10.7,11.9,7.7,4.2,1.7,21.9,11.1
2020-01-04 21:00:00,4.1,11.3,0.6,3.8,4.4,5.2,0.09999999999999999,3.0,6.0,8.7,13.6,8.0,4.1,1.3,11.6,10.4
2020-01-04 22:00:00,9.5,11.1,1.0,3.9,5.05,7.7,2.05,3.5,6.2,8.7,,7.3,3.5,1.5,12.5,10.0
2020-01-04 23:00:00,8.8,11.5,0.8,8.4,7.35,12.6,3.2,6.0,12.5,9.4,,7.5,4.8,2.0,8.5,11.0
2020-01-05 00:00:00,15.0,12.5,1.8,10.0,11.100000000000001,17.5,9.45,7.5,19.5,11.2,25.3,4.4,6.6,5.1,8.0,11.7
2020-01-05 01:00:00,15.2,11.9,4.3,17.8,17.35,20.0,11.25,6.7,21.3,11.5,22.8,1.5,12.1,7.5,8.8,13.0
2020-01-05 02:00:00,7.6,18.7,4.9,18.3,18.35,17.6,21.0,7.5,22.5,11.2,11.5,7.8,9.9,12.8,4.2,12.7
2020-01-05 03:00:00,12.6,27.0,2.6,19.1,19.65,20.0,6.2,10.4,23.1,10.9,7.1,10.5,10.8,6.2,4.6,11.1
2020-01-05 04:00:00,7.4,19.7,12.3,25.2,21.15,17.3,2.05,17.3,25.6,11.4,8.5,10.4,17.3,5.3,3.2,10.3
2020-01-05 05:00:00,5.7,27.7,6.3,20.6,10.05,19.9,0.3,17.3,26.8,9.1,30.8,8.4,27.2,4.2,2.0,9.7
2020-01-05 06:00:00,4.8,24.0,3.2,18.8,5.4,17.9,0.39999999999999997,17.3,27.1,6.9,26.2,6.5,5.2,2.4,1.0,9.3
2020-01-05 07:00:00,6.5,22.9,7.0,18.1,8.1,13.6,0.8,9.1,26.8,10.9,6.4,12.0,3.3,1.4,2.7,8.8
2020-01-05 08:00:00,2.0,19.1,7.8,12.7,8.85,14.4,1.45,8.6,26.0,1.9,2.6,7.6,2.1,1.8,4.2,9.6
2020-01-05 09:00:00,3.3,18.9,6.4,9.6,6.9,16.0,0.85,9.8,19.2,2.1,6.7,5.9,1.9,5.5,4.7,8.3
2020-01-05 10:00:00,5.3,17.7,2.0,6.9,5.45,13.9,0.55,7.9,15.3,2.9,2.6,5.5,2.1,2.8,2.8,7.3
2020-01-05 11:00:00,4.8,18.9,2.1,7.1,4.1,8.4,0.7000000000000001,3.5,11.3,3.6,2.5,5.2,1.8,1.3,5.1,8.5
2020-01-05 12:00:00,5.9,28.9,1.4,7.4,3.4,14.2,1.45,4.4,8.1,2.9,13.4,6.3,2.8,1.1,4.7,9.6
2020-01-05 13:00:00,6.9,23.6,1.3,7.2,3.05,14.5,1.55,7.2,8.8,3.0,17.9,5.8,1.4,1.9,3.8,7.9
2020-01-05 14:00:00,6.7,24.7,1.8,6.5,4.25,14.0,5.0,6.9,9.0,3.8,18.5,5.8,1.7,2.0,4.4,10.6
2020-01-05 15:00:00,8.7,26.4,2.3,7.7,6.6,15.2,4.05,6.9,11.4,3.0,13.0,5.8,3.0,5.1,6.2,11.2
2020-01-05 16:00:00,8.9,26.0,3.4,9.3,9.0,14.4,4.65,6.9,14.8,5.3,22.7,5.9,3.5,3.7,3.8,10.0
2020-01-05 17:00:00,14.4,27.0,2.5,11.5,10.8,16.5,5.8,6.9,16.0,6.0,23.1,8.8,2.3,3.5,2.9,12.3
2020-01-05 18:00:00,16.8,25.9,1.4,10.6,10.7,11.4,5.85,6.9,13.7,5.8,16.0,10.4,4.4,1.7,4.3,12.2
2020-01-05 19:00:00,14.5,25.5,2.0,9.8,11.0,12.1,4.75,6.9,14.0,6.4,20.4,10.8,4.4,0.9,3.5,10.1
2020-01-05 20:00:00,13.7,23.3,2.0,9.0,10.75,10.3,6.6,6.9,12.7,7.3,14.3,11.9,4.9,1.4,4.0,9.7
2020-01-05 21:00:00,14.0,22.9,1.1,8.6,10.3,8.8,8.0,6.9,10.7,7.0,13.8,10.7,5.4,1.2,4.9,11.9
2020-01-05 22:00:00,14.2,23.8,0.7,9.8,12.35,11.5,9.350000000000001,6.9,14.3,7.8,13.4,8.6,5.7,1.2,5.6,10.0
2020-01-05 23:00:00,12.0,22.4,0.7,11.1,12.9,15.5,12.75,6.9,14.1,1.2,17.4,8.7,7.0,1.1,7.4,16.1
2020-01-06 00:00:00,6.0,22.1,1.7,5.0,8.65,12.5,12.149999999999999,6.9,8.7,0.4,20.9,1.1,9.3,3.6,6.8,17.8
2020-01-06 01:00:00,4.7,27.8,3.0,2.7,9.55,14.1,12.6,6.9,6.8,1.0,25.1,1.3,10.6,7.8,7.1,16.8
2020-01-06 02:00:00,3.3,24.8,5.4,3.9,10.2,15.1,9.8,6.9,7.2,1.2,23.8,2.3,8.4,2.0,7.0,11.9
2020-01-06 03:00:00,5.8,24.8,2.4,7.0,14.25,16.9,4.45,6.9,9.3,0.7,24.5,6.1,4.8,2.2,8.9,10.3
2020-01-06 04:00:00,3.5,24.4,10.3,8.2,11.55,16.9,1.85,6.9,13.4,0.7,18.1,5.2,6.2,4.1,9.2,10.6
2020-01-06 05:00:00,1.9,18.0,7.6,8.8,9.7,7.8,1.65,6.9,17.2,0.9,6.9,5.6,7.1,5.7,8.7,7.8
2020-01-06 06:00:00,1.9,17.4,3.7,8.9,7.4,8.0,1.6,6.9,15.0,1.0,4.9,7.6,6.7,5.2,11.2,4.5
2020-01-06 07:00:00,0.8,16.7,1.6,7.4,7.75,9.3,1.0,6.3,12.9,0.9,4.4,5.5,6.5,4.9,13.9,3.6
2020-01-06 08:00:00,2.2,13.8,1.3,4.9,6.45,6.5,0.85,4.8,11.4,0.8,4.0,6.8,10.0,4.6,7.9,3.3
2020-01-06 09:00:00,1.7,11.3,1.0,5.4,6.35,4.3,0.35,3.5,6.3,0.5,3.0,6.8,8.6,1.7,3.3,4.8
2020-01-06 10:00:00,2.1,11.4,1.1,4.5,5.800000000000001,4.7,0.5,3.3,6.3,0.8,4.2,7.5,7.4,2.1,1.9,5.6
2020-01-06 11:00:00,2.0,12.8,1.4,4.7,5.35,4.9,0.35,3.4,6.7,0.5,3.2,7.0,9.1,2.5,1.4,5.2
2020-01-06 12:00:00,1.8,10.7,1.9,4.0,5.45,4.4,0.35,3.0,8.4,0.4,3.9,6.5,7.8,1.7,2.1,3.7
2020-01-06 13:00:00,1.8,12.0,1.9,4.4,5.7,5.1,1.0,3.8,9.0,0.5,4.0,5.8,7.4,1.7,2.3,4.2
2020-01-06 14:00:00,1.7,12.1,2.0,6.1,5.4,6.4,1.0499999999999998,4.0,8.7,0.6,5.5,6.4,9.7,2.7,1.3,3.1
2020-01-06 15:00:00,2.7,12.0,3.3,7.3,6.550000000000001,7.7,0.8500000000000001,5.3,9.1,0.6,2.5,7.3,9.0,1.6,3.3,2.5
2020-01-06 16:00:00,1.0,10.8,2.9,8.1,7.0,6.0,1.75,7.0,13.6,0.4,5.8,10.2,8.2,1.4,2.7,2.5
2020-01-06 17:00:00,0.5,12.9,2.4,8.4,6.9,6.0,1.5,4.6,8.7,0.3,5.0,8.2,6.7,5.3,2.9,1.1
2020-01-06 18:00:00,0.5,13.2,1.9,5.3,2.95,3.0,0.85,1.5,8.3,0.2,4.6,7.3,7.8,2.9,3.2,1.4
2020-01-06 19:00:00,0.6,10.0,1.3,5.0,2.6,2.0,1.15,1.4,6.8,0.3,2.6,8.6,7.0,2.3,3.2,0.4
2020-01-06 20:00:00,1.2,9.5,1.6,3.1,3.5999999999999996,3.0,1.4500000000000002,2.4,3.8,0.0,3.2,10.1,6.1,1.4,3.1,0.9
2020-01-06 21:00:00,1.9,8.9,1.0,2.4,2.45,2.2,2.0999999999999996,1.5,3.1,0.3,2.6,7.5,4.1,1.0,2.8,0.9
2020-01-06 22:00:00,1.9,8.2,0.8,2.3,2.0999999999999996,2.4,2.0,1.9,2.7,0.6,2.2,7.6,3.9,1.0,2.9,3.2
2020-01-06 23:00:00,1.7,8.2,2.8,2.9,2.2,2.3,1.3,2.0,3.2,0.7,4.1,5.3,5.0,1.2,3.6,4.0
2020-01-07 00:00:00,1.8,9.8,5.6,3.3,3.35,2.3,2.05,1.8,3.7,0.3,4.3,4.5,7.1,3.5,3.3,1.8
2020-01-07 01:00:00,2.6,12.6,4.0,3.4,4.65,3.4,2.4,2.9,5.0,0.4,3.8,4.4,5.3,10.2,4.0,2.0
2020-01-07 02:00:00,2.8,24.7,4.5,4.2,6.15,3.5,2.45,3.3,6.4,0.6,3.6,3.0,6.5,6.1,4.5,1.9
2020-01-07 03:00:00,3.4,28.8,4.0,4.0,5.300000000000001,4.8,2.2,3.3,6.9,0.5,4.0,7.0,4.1,2.7,4.8,1.6
2020-01-07 04:00:00,3.7,11.5,16.3,3.5,4.9,4.8,2.1,2.8,6.2,0.6,7.0,6.7,2.6,2.4,5.1,1.7
2020-01-07 05:00:00,4.2,18.8,8.7,3.2,4.15,3.6,1.4,2.2,5.8,0.8,6.8,7.5,2.9,3.6,5.5,2.0
2020-01-07 06:00:00,5.5,18.6,13.0,3.3,3.9499999999999997,3.1,1.0499999999999998,1.9,5.4,0.8,4.5,9.2,1.9,2.2,5.6,1.9
2020-01-07 07:00:00,5.0,16.6,3.1,2.1,4.699999999999999,3.5,0.95,1.8,3.4,0.7,4.9,8.4,1.8,1.9,6.2,1.6
2020-01-07 08:00:00,3.0,19.3,2.7,1.9,5.15,3.3,1.6500000000000001,1.4,3.2,0.8,4.3,8.0,1.4,1.3,5.9,1.4
2020-01-07 09:00:00,2.7,16.7,2.4,2.9,4.449999999999999,2.7,1.65,1.1,3.4,0.8,2.1,7.6,1.4,1.1,5.4,1.1
2020-01-07 10:00:00,2.1,7.0,1.7,3.3,3.8000000000000003,2.8,1.2,15.4,4.6,0.7,2.0,9.2,1.5,1.0,5.5,0.8
2020-01-07 11:00:00,1.8,7.2,1.6,2.9,4.25,4.1,0.9500000000000001,0.9,4.0,0.6,2.1,6.4,1.8,1.4,5.5,1.1
2020-01-07 12:00:00,2.9,5.8,1.8,2.4,4.5,4.0,0.9,1.5,4.7,0.7,1.5,6.4,2.3,2.2,5.2,2.4
2020-01-07 13:00:00,4.3,9.3,2.7,2.9,3.75,2.6,1.15,0.7,4.1,0.9,3.1,6.3,2.6,5.8,4.5,3.6
2020-01-07 14:00:00,5.3,19.3,5.1,3.4,5.5,3.6,2.15,1.0,6.4,0.8,4.3,8.0,2.2,4.8,4.5,3.0
2020-01-07 15:00:00,5.3,7.2,7.9,3.9,6.1,4.8,1.65,1.0,7.2,0.7,8.0,9.5,3.7,3.9,6.9,2.7
2020-01-07 16:00:00,7.6,11.9,5.1,4.8,5.199999999999999,5.1,1.1,1.2,6.6,0.8,18.2,11.9,2.1,2.4,5.5,2.1
2020-01-07 17:00:00,6.3,8.0,5.1,4.8,4.3,5.3,0.95,0.8,4.6,0.7,13.8,11.5,1.7,4.2,7.7,2.1
2020-01-07 18:00:00,5.6,8.7,2.7,4.6,4.45,5.2,0.9,1.0,6.1,0.5,15.0,8.2,2.2,3.1,9.5,2.8
2020-01-07 19:00:00,7.0,8.7,1.8,4.0,4.6,5.4,0.5,1.2,5.4,0.6,12.1,7.9,2.5,2.5,6.5,2.0
2020-01-07 20:00:00,8.0,10.6,2.2,3.2,3.65,2.5,0.6,0.8,4.1,0.4,15.0,8.5,2.3,1.8,6.5,3.6
2020-01-07 21:00:00,7.2,11.7,0.6,3.6,2.85,2.1,1.45,1.0,4.4,0.3,16.5,8.3,2.8,1.9,6.8,3.7
2020-01-07 22:00:00,4.4,10.8,0.7,4.8,3.25,2.7,1.8,1.0,7.5,1.1,16.7,7.7,2.6,2.2,7.3,5.1
2020-01-07 23:00:00,5.4,11.3,2.3,5.9,4.550000000000001,4.4,1.35,1.8,8.1,1.7,17.0,11.9,3.1,1.7,8.9,7.5
2020-01-08 00:00:00,6.6,12.6,2.3,5.8,5.7,5.2,1.5,2.4,9.2,2.1,17.4,13.3,1.7,4.6,10.9,8.0
2020-01-08 01:00:00,6.7,13.5,1.8,6.0,8.8,5.6,0.5,2.5,9.1,2.4,17.2,13.6,1.4,5.1,13.4,8.9
2020-01-08 02:00:00,6.4,20.9,1.1,5.3,9.100000000000001,4.4,0.65,2.3,8.3,4.0,16.5,13.2,1.3,4.1,10.8,11.7
2020-01-08 03:00:00,7.3,19.0,0.9,4.3,9.95,4.3,0.24999999999999997,3.2,9.4,4.5,7.7,15.1,1.0,2.4,8.8,5.2
2020-01-08 04:00:00,6.5,18.8,0.9,3.0,9.25,3.8,0.35000000000000003,2.0,5.2,9.7,9.6,12.3,1.1,7.2,13.8,4.1
2020-01-08 05:00:00,5.5,19.4,0.5,2.9,4.45,3.0,0.45,1.0,4.2,7.4,10.8,14.4,0.8,16.0,14.5,7.0
2020-01-08 06:00:00,5.1,23.1,1.4,2.0,5.699999999999999,2.4,0.5,1.0,4.0,9.8,9.0,7.4,0.9,6.3,15.6,11.4
2020-01-08 07:00:00,4.2,22.4,1.3,1.8,4.3,2.1,0.5,0.7,1.5,10.3,14.9,5.1,0.8,10.2,16.3,7.1
2020-01-08 08:00:00,2.6,22.1,1.2,1.7,2.55,1.4,0.5,0.5,1.6,8.6,8.3,5.4,0.9,4.9,19.6,2.0
2020-01-08 09:00:00,2.3,23.5,0.6,1.1,2.35,1.6,0.8999999999999999,0.5,2.3,9.6,5.6,4.1,0.7,2.5,23.0,1.0
2020-01-08 10:00:00,1.5,24.1,0.5,1.2,2.35,1.4,1.0,0.5,1.8,9.6,4.1,3.2,0.5,1.5,21.6,0.5
2020-01-08 11:00:00,1.8,28.8,0.4,1.6,2.5,1.8,0.8999999999999999,0.9,3.0,10.2,6.2,2.7,0.6,1.3,22.2,0.6
2020-01-08 12:00:00,1.8,21.5,0.6,1.1,2.7,11.6,0.6,5.8,2.1,12.5,5.4,2.3,0.8,1.6,24.6,1.2
2020-01-08 13:00:00,2.2,24.6,0.8,1.6,2.9000000000000004,13.7,0.6,7.0,3.6,12.7,2.5,3.2,1.0,1.7,25.9,4.7
2020-01-08 14:00:00,4.1,20.6,0.7,2.4,10.05,13.3,0.6,6.6,18.9,13.9,2.5,5.3,1.0,1.7,26.7,4.3
2020-01-08 15:00:00,6.1,29.0,1.1,11.4,15.2,13.9,0.9,6.3,24.2,14.3,4.4,5.7,1.1,3.1,27.2,6.9
2020-01-08 16:00:00,6.1,24.9,1.0,11.5,12.95,10.0,5.25,5.4,17.4,13.9,11.8,6.2,1.6,6.8,17.4,8.3
2020-01-08 17:00:00,4.9,28.6,0.7,9.4,6.6,3.4,14.5,3.1,14.8,13.5,16.6,7.2,2.0,3.9,13.1,5.6
2020-01-08 18:00:00,3.4,23.1,0.7,5.5,8.35,3.8,12.25,3.0,17.0,14.6,12.8,2.6,5.8,2.0,16.6,5.1
2020-01-08 19:00:00,1.9,22.1,0.5,4.6,6.3,7.7,10.55,5.8,9.6,3.1,12.9,1.4,9.2,1.1,17.1,5.0
2020-01-08 20:00:00,2.4,17.2,0.4,1.3,3.35,2.7,4.35,2.0,5.8,1.1,11.8,3.2,7.4,0.9,12.5,3.6
2020-01-08 21:00:00,5.1,14.8,0.6,1.2,2.9,2.5,2.0999999999999996,1.3,3.1,3.7,14.8,7.1,7.7,0.9,9.0,3.3
2020-01-08 22:00:00,3.9,12.1,0.5,2.2,3.65,3.1,4.0,1.6,3.1,2.7,14.7,5.9,5.1,1.0,7.6,4.1
2020-01-08 23:00:00,5.3,12.8,0.7,2.8,3.95,3.6,3.75,2.0,2.6,1.3,16.2,9.9,5.7,0.9,6.3,7.8
2020-01-09 00:00:00,7.6,12.8,2.3,3.0,5.199999999999999,4.9,2.6500000000000004,2.1,6.8,1.2,21.2,10.0,5.2,1.0,3.1,11.0
2020-01-09 01:00:00,2.4,13.1,2.6,3.7,5.4,4.2,3.1,1.2,5.6,0.5,24.4,11.8,6.4,2.4,3.7,8.9
2020-01-09 02:00:00,1.1,19.2,2.4,5.6,3.9,1.2,1.5499999999999998,0.5,9.3,0.5,22.0,17.6,5.4,3.8,4.5,5.4
2020-01-09 03:00:00,1.0,39.0,3.1,9.1,5.85,3.0,2.1,1.5,11.4,0.9,25.3,16.3,5.8,2.2,5.7,5.0
2020-01-09 04:00:00,1.0,23.2,1.6,9.4,6.4,3.5,1.75,3.0,12.3,0.6,17.4,18.5,7.3,1.8,7.1,3.2
2020-01-09 05:00:00,3.6,20.8,0.6,11.1,8.100000000000001,7.4,1.5,3.9,12.9,0.7,11.5,20.5,11.8,1.5,10.5,2.3
2020-01-09 06:00:00,2.9,13.3,0.8,14.3,11.15,8.2,2.35,4.1,16.3,0.7,6.7,9.5,17.6,1.6,4.5,1.6
2020-01-09 07:00:00,2.6,16.6,1.8,15.3,10.15,10.3,1.75,4.1,18.0,0.8,3.3,11.9,13.1,3.3,1.9,1.5
2020-01-09 08:00:00,1.0,13.8,3.3,16.0,11.8,12.2,2.45,5.6,15.6,0.7,2.5,15.8,10.8,1.4,1.4,1.3
2020-01-09 09:00:00,0.6,14.0,1.7,,13.25,15.4,4.8,5.9,15.4,0.6,3.3,17.7,12.9,1.4,0.9,2.1
2020-01-09 10:00:00,1.6,10.1,2.2,16.2,13.100000000000001,14.7,4.9,5.9,16.3,0.7,1.9,17.0,9.1,1.2,1.1,3.7
2020-01-09 11:00:00,2.3,8.7,1.5,17.1,13.149999999999999,12.6,5.0,5.9,16.3,0.8,2.3,19.6,15.4,1.2,1.4,4.7
2020-01-09 12:00:00,2.4,13.4,1.5,15.5,12.8,13.5,4.65,6.4,17.8,0.7,2.4,18.0,13.4,1.8,1.5,3.8
2020-01-09 13:00:00,3.2,13.6,3.1,15.6,12.5,13.9,4.9,7.1,15.7,0.6,3.2,18.0,10.7,1.2,2.9,4.3
2020-01-09 14:00:00,4.6,16.4,7.7,13.1,12.8,11.9,5.4,6.5,14.2,1.0,5.0,13.3,14.5,1.6,3.3,4.8
2020-01-09 15:00:00,4.2,13.1,9.1,11.5,11.55,11.1,5.75,6.1,16.2,1.6,3.2,20.5,11.4,1.8,4.7,4.6
2020-01-09 16:00:00,4.5,13.6,5.1,10.1,12.2,12.9,2.35,5.2,9.5,1.4,8.3,12.5,3.8,2.3,3.7,3.9
2020-01-09 17:00:00,5.9,14.4,5.8,8.6,3.65,2.7,2.5999999999999996,1.8,8.9,0.8,16.4,18.9,2.7,1.6,7.1,4.6
2020-01-09 18:00:00,3.8,12.9,5.2,8.2,4.95,2.3,1.5499999999999998,1.5,7.5,0.7,8.5,16.0,7.5,1.2,4.5,3.7
2020-01-09 19:00:00,1.7,15.4,3.1,,4.5,3.6,1.25,2.3,4.8,0.9,6.9,11.2,9.7,2.2,4.7,3.8
2020-01-09 20:00:00,2.5,11.7,2.1,3.1,3.3,3.4,1.35,1.7,4.1,0.8,6.7,9.2,8.1,1.4,6.5,3.9
2020-01-09 21:00:00,1.5,9.9,2.6,2.5,1.9500000000000002,2.2,1.85,1.0,2.7,1.4,15.4,,6.5,1.3,8.6,2.9
2020-01-09 22:00:00,1.3,8.9,2.4,1.3,2.0999999999999996,2.2,1.5,1.1,2.7,1.7,13.8,3.2,6.7,1.6,6.1,1.0
2020-01-09 23:00:00,1.2,11.7,3.9,1.6,1.6,1.0,2.75,0.6,1.8,2.4,14.9,2.0,4.9,1.9,3.4,
2020-01-10 00:00:00,1.2,14.5,3.1,1.2,2.1,1.6,2.45,0.7,1.4,1.6,22.5,4.1,1.8,2.8,2.4,
2020-01-10 01:00:00,1.7,17.7,8.1,1.7,2.2,2.0,2.1,1.0,2.5,1.7,11.9,4.4,3.0,3.5,1.3,4.8
2020-01-10 02:00:00,1.7,19.9,3.8,1.7,1.7000000000000002,1.0,2.7,0.4,2.6,1.6,7.7,4.2,3.8,2.1,1.1,3.0
2020-01-10 03:00:00,1.4,15.7,2.3,0.6,1.15,0.5,0.1,0.3,1.0,3.5,4.6,3.5,6.0,2.5,1.1,0.4
2020-01-10 04:00:00,1.7,15.7,3.8,1.1,1.55,1.4,0.1,0.6,1.4,2.3,12.3,1.2,2.1,2.4,0.6,0.6
2020-01-10 05:00:00,0.9,8.7,4.5,1.5,2.6500000000000004,1.3,1.7,0.5,1.7,5.0,13.9,1.7,0.9,6.8,0.6,0.5
2020-01-10 06:00:00,0.7,8.8,6.9,1.9,1.6500000000000001,0.5,0.55,0.2,0.8,2.7,12.8,1.6,0.6,11.1,0.8,0.5
2020-01-10 07:00:00,0.4,9.0,5.3,0.4,1.35,0.2,0.3,0.2,0.4,1.9,15.5,0.6,0.9,7.4,0.7,0.6
2020-01-10 08:00:00,0.4,9.9,5.0,0.4,1.4000000000000001,0.3,0.6,0.2,0.5,3.7,15.8,0.5,0.6,4.9,0.6,0.6
2020-01-10 09:00:00,0.5,14.0,3.6,0.5,1.5,0.4,0.39999999999999997,0.2,1.7,1.5,15.2,0.3,0.6,2.2,1.5,0.7
2020-01-10 10:00:00,0.4,6.9,4.3,0.6,1.7,0.6,0.45,0.2,1.8,0.5,5.4,0.5,0.5,2.5,1.9,0.6
2020-01-10 11:00:00,0.3,6.6,5.3,0.6,1.8,0.4,0.8,0.2,2.2,0.5,3.8,0.6,0.6,1.5,2.0,0.6
2020-01-10 12:00:00,0.3,6.3,2.5,0.6,1.6,0.5,0.55,0.2,3.4,1.2,3.4,0.6,0.7,1.0,2.2,0.7
2020-01-10 13:00:00,0.3,4.9,2.6,0.8,2.0,0.5,1.6,0.5,3.3,0.7,5.1,0.7,0.9,0.9,3.2,1.1
2020-01-10 14:00:00,0.5,12.7,1.9,1.7,6.6,0.8,2.05,0.6,3.8,1.2,7.5,1.0,1.1,0.7,4.7,1.8
2020-01-10 15:00:00,0.5,8.3,2.1,2.0,2.6500000000000004,1.6,2.55,0.9,3.7,1.2,11.1,2.2,1.7,0.8,4.6,2.4
2020-01-10 16:00:00,0.4,10.5,1.7,2.5,1.5,1.7,1.35,1.0,2.8,1.7,16.0,2.2,2.5,0.8,6.6,2.4
2020-01-10 17:00:00,0.8,12.5,1.1,2.4,1.7000000000000002,0.7,0.95,0.5,2.7,2.3,9.9,2.0,1.4,0.6,4.3,1.2
2020-01-10 18:00:00,1.1,17.5,1.0,1.6,1.5,0.6,1.3,0.4,2.2,1.3,6.8,2.7,1.4,0.5,5.6,0.9
2020-01-10 19:00:00,1.2,19.0,0.9,1.3,1.6,0.6,0.95,0.4,3.0,0.9,3.4,2.9,2.1,0.4,8.0,1.1
2020-01-10 20:00:00,0.9,,0.8,1.5,1.75,0.8,0.75,0.5,2.4,0.4,2.6,3.3,2.7,0.4,6.8,1.0
2020-01-10 21:00:00,1.2,9.0,0.9,0.8,1.65,0.4,1.15,0.3,2.5,0.2,12.8,3.3,2.2,0.3,10.0,0.7
2020-01-10 22:00:00,0.6,7.0,0.5,0.9,1.65,0.2,1.15,0.3,2.5,0.2,14.2,4.1,1.9,0.2,4.4,0.6
2020-01-10 23:00:00,0.6,7.3,0.9,1.3,1.9,0.5,1.2000000000000002,0.3,2.5,0.1,15.2,4.1,2.0,0.2,4.3,0.5
2020-01-11 00:00:00,1.1,8.7,2.4,3.1,3.1,1.2,1.55,0.9,3.1,0.4,16.1,4.7,5.5,0.2,5.5,0.8
2020-01-11 01:00:00,1.7,9.5,3.9,3.4,4.05,3.5,1.55,1.8,5.0,1.0,14.9,5.4,7.8,0.3,10.2,1.8
2020-01-11 02:00:00,2.2,6.9,10.6,3.0,3.3499999999999996,3.3,1.45,1.5,7.2,1.1,6.4,4.6,4.0,0.3,8.9,1.8
2020-01-11 03:00:00,3.6,5.8,6.2,3.7,3.4,2.9,0.95,1.5,6.3,1.1,2.5,6.0,3.0,1.2,8.6,1.9
2020-01-11 04:00:00,2.5,7.1,4.8,3.8,3.4000000000000004,3.4,1.0,1.2,6.3,0.9,4.3,3.9,2.5,1.6,9.1,2.8
2020-01-11 05:00:00,3.8,7.5,10.8,3.2,3.3499999999999996,3.6,0.9,1.2,5.5,0.9,3.0,4.9,3.9,1.8,10.6,2.3
2020-01-11 06:00:00,3.4,7.8,8.2,2.8,3.8,3.6,0.9,0.8,4.1,0.9,4.4,5.3,2.6,4.5,7.5,2.2
2020-01-11 07:00:00,2.8,6.6,5.5,3.6,3.9,3.4,0.6,0.8,4.3,1.3,2.9,12.2,3.0,1.2,5.5,2.1
2020-01-11 08:00:00,2.7,5.3,6.7,3.3,3.0999999999999996,2.7,0.5,0.7,3.1,1.8,1.7,5.4,4.4,1.6,4.8,2.0
2020-01-11 09:00:00,2.8,5.6,1.4,3.3,3.3499999999999996,1.7,0.5,0.5,2.9,1.2,1.9,6.9,2.0,0.9,4.3,1.8
2020-01-11 10:00:00,2.6,14.4,1.1,2.8,3.4,2.1,0.39999999999999997,0.5,2.1,1.5,4.3,5.8,1.6,0.8,4.6,1.9
2020-01-11 11:00:00,2.4,7.7,1.3,3.3,2.95,1.2,0.35,0.4,3.1,2.0,2.1,6.8,1.6,0.9,3.5,1.8
2020-01-11 12:00:00,2.0,5.9,1.0,3.0,1.9500000000000002,1.1,0.35,0.4,4.7,2.0,2.4,4.9,1.6,0.9,4.4,1.5
2020-01-11 13:00:00,0.8,7.5,1.2,2.7,2.1500000000000004,1.9,0.55,1.0,4.4,1.4,2.7,4.4,1.9,1.6,5.2,1.4
2020-01-11 14:00:00,1.6,7.1,1.4,3.5,2.3499999999999996,3.3,0.95,0.9,4.7,1.0,4.5,3.9,2.0,1.7,6.1,1.7
2020-01-11 15:00:00,2.7,8.8,1.6,4.6,3.7,6.1,0.7,1.2,4.3,1.9,2.9,12.4,2.7,2.1,9.8,3.2
2020-01-11 16:00:00,3.4,9.7,1.0,5.5,3.1500000000000004,4.0,0.35,1.2,6.6,1.6,3.0,3.4,1.7,3.5,5.7,9.5
2020-01-11 17:00:00,3.8,10.6,1.1,5.0,3.3499999999999996,4.4,0.44999999999999996,1.5,5.1,1.4,3.3,3.4,1.7,1.5,5.8,4.0
2020-01-11 18:00:00,3.1,9.9,1.1,3.7,2.7,4.3,0.35,1.1,2.0,1.0,4.5,4.1,2.0,0.9,6.4,3.5
2020-01-11 19:00:00,2.1,7.7,0.5,3.7,2.5,3.1,0.55,2.1,4.1,0.7,8.3,2.4,1.7,0.7,4.7,2.7
2020-01-11 20:00:00,1.4,7.6,0.5,2.9,2.75,3.1,0.65,1.9,3.9,0.6,10.0,2.4,1.6,0.9,7.6,2.2
2020-01-11 21:00:00,2.5,7.5,0.5,2.2,3.15,3.4,0.8500000000000001,2.2,4.4,0.5,6.1,2.9,2.2,0.9,5.6,2.3
2020-01-11 22:00:00,3.3,7.4,0.6,1.6,3.2,3.6,1.2,2.7,3.5,0.5,3.6,3.0,2.1,0.8,6.2,3.3